(11) Parthenope
ephemeris date magn radius delta ra dec elong phase
Today26 Aug 202612.22.576 AU3.371 AU12h22m+01°11'32.5°12.2°
Opposition30 Jun 20279.22.261 AU1.246 AU18h38m-19°20'176.1°1.8°
(11) Parthenope - 2026-08-26
astro.vanbuitenen.nl


 
-1 year
-1 month
-1 day
Now
+1 day
+1 month
+1 year

The interactive orbit chart above shows the body's path through the solar system and its position at the given date. Green and blue lines are shown perpendicular to the ecliptic plane: Green if the path is above the ecliptic plane, blue if it is below. (Left-click and drag to rotate the view; Right-click and drag to move the view; Use scroll wheel to zoom in our out.)

The orbital elements of Parthenope are:

            e (Eccentricity)                : 0.1008882
            a (Semimajor axis)              : 2.4522592
            i (Inclination)                 : 4.63618
            Ω (Longitude of ascending node) : 125.46946
            ω (Argument of perihelion)      : 196.45557
            M (Mean anomaly)                : 224.94245
            Epoch                           : 2026 Jun 09

            L (Longitude of perihelion)     : 141.87409
            B (Latitude of perihelion)      : -1.31198
            P (Orbital period in years)     : 3.84            
        

The light curve chart below shows the estimated development of the minor planet's magnitude.


The all-sky chart below shows the path of the minor planet over the same period as the light curve. The current position is marked yellow.





The following chart shows the path of the minor planet in the next few days. The field of view is optimized for (~10x50) binoculars and finderscopes.




Ephemerides:
Date       Time       RA (2000)    DEC (2000)    delta   radius  elong  phase   PA    magn
2026-08-26 00:00 UT   12 22 52.1   +01 11 04     3.371    2.576   32.5   12.2   108   12.2 
2026-08-26 11:43 UT   12 23 36.8   +01 06 11     3.373    2.576   32.2   12.1   108   12.2 
2026-08-27 00:00 UT   12 24 23.6   +01 01 02     3.376    2.575   32.0   12.0   108   12.2 
2026-08-28 00:00 UT   12 25 55.4   +00 50 60     3.382    2.574   31.4   11.8   108   12.1 
2026-08-29 00:00 UT   12 27 27.4   +00 40 56     3.388    2.573   30.9   11.6   108   12.1 
2026-08-30 00:00 UT   12 28 59.6   +00 30 52     3.393    2.572   30.3   11.4   108   12.1 
2026-08-31 00:00 UT   12 30 32.1   +00 20 47     3.398    2.572   29.8   11.2   107   12.1 
2026-09-01 00:00 UT   12 32 04.7   +00 10 41     3.404    2.571   29.2   11.1   107   12.1 
2026-09-02 00:00 UT   12 33 37.7   +00 00 35     3.409    2.570   28.7   10.9   107   12.1 
2026-09-03 00:00 UT   12 35 10.8   +00 09 32     3.414    2.569   28.2   10.7   107   12.1 
2026-09-04 00:00 UT   12 36 44.2   +00 19 39     3.418    2.568   27.6   10.5   107   12.1 
2026-09-05 00:00 UT   12 38 17.8   +00 29 47     3.423    2.567   27.1   10.3   107   12.1 
2026-09-06 00:00 UT   12 39 51.7   +00 39 55     3.428    2.566   26.5   10.1   106   12.1 
2026-09-07 00:00 UT   12 41 25.7   +00 50 03     3.432    2.565   26.0    9.9   106   12.1 
2026-09-08 00:00 UT   12 43 00.1   -01 00 12     3.437    2.564   25.5    9.7   106   12.1 
2026-09-09 00:00 UT   12 44 34.6   -01 10 22     3.441    2.563   24.9    9.5   106   12.1 
2026-09-10 00:00 UT   12 46 09.4   -01 20 31     3.445    2.562   24.4    9.3   106   12.1 
2026-09-11 00:00 UT   12 47 44.4   -01 30 41     3.449    2.561   23.9    9.2   105   12.1 
2026-09-12 00:00 UT   12 49 19.6   -01 40 50     3.453    2.560   23.3    9.0   105   12.1 
2026-09-13 00:00 UT   12 50 55.0   -01 51 00     3.457    2.559   22.8    8.8   105   12.1 
2026-09-14 00:00 UT   12 52 30.7   -02 01 10     3.461    2.558   22.3    8.6   105   12.1 


    Terminology:
            
    delta:  distance between minor planet and earth in AU
    radius: distance between minor planet and sun in AU
    magn:   magnitude (brightness) estimate    
    ra:     right ascension in hours (24h = 360deg)
    dec:    declination in degrees
    elong:  elongation in degrees (angle sun-earth-minor planet)    
    phase:  phase angle in degrees (angle sun-minor planet-earth)        
    AU:     Astronomical Unit (mean distance between earth and sun: 149597870.7 km
    

Orbital elements provided by the MPC (Minor Planet Center).
Calculations by a modified version of AAPlus, a C# implementation of the AA+ project by PJ Naughter from the algorithms presented in the book "Astronomical Algorithms" by Jean Meeus.
NGC2000 dso catalog and star labels from VizieR as provided by the Strasbourg astronomical Data Center.
Tycho2 catalog from the ESO archive.